[[{"header":{"parameterUnit":"m.s-1","parameterCategory":2,"la1":30.2991,"la2":30.254,"lo1":-89.0895,"lo2":-89.0444,"dy":0.0017,"dx":0.0017,"nx":28,"ny":28,"refTime":"2024-08-26T21:00:00:Z","depth":"0","parameterNumber":2,"parameterNumberName":"U-component_of_CURRENTS"},"data":[0,0,0,0,0,0,0,0,0,0,0,0,0,0,0,0,0,0,0,0,0,0,0,0,0,0,0,0,0,0,0,0,0,0,0,0,0,0,0,0,0,0,0,0,0,0,0,0,0,0,0,0,0,0,0,0,0,0,-0.3603,-0.3604,0,-0.362,-0.3621,-0.3621,-0.3732,-0.3734,-0.3737,-0.3739,-0.374,-0.3738,-0.3735,0,0,0,0,0,0,0,0,0,0,0,0,0,-0.3531,-0.3533,-0.3603,-0.3604,-0.3604,-0.362,-0.3621,-0.3621,-0.3731,-0.3735,-0.3738,-0.3741,-0.3741,-0.3738,-0.3735,0,0,0,0,0,0,0,0,0,0,0,0,0,-0.3558,-0.3534,-0.3603,-0.366,-0.3665,-0.362,-0.3621,-0.3621,-0.3731,-0.3735,-0.3738,-0.3742,-0.3742,-0.3738,-0.3735,-0.3634,0,0,-0.3723,-0.3722,0,0,0,0,0,0,0,0,-0.3557,-0.3561,-0.3651,-0.3656,-0.3662,-0.3677,-0.3595,-0.3624,-0.373,-0.3707,-0.374,-0.3744,-0.3713,-0.3712,-0.3709,-0.3634,-0.3634,-0.3723,-0.3721,-0.3719,-0.3718,0,0,0,0,0,0,0,-0.3555,-0.356,-0.3611,-0.3651,-0.3657,-0.3638,-0.3647,-0.3601,-0.3689,-0.3709,-0.3717,-0.3716,-0.3717,-0.3712,-0.371,-0.3634,-0.3723,-0.372,-0.3718,-0.3716,-0.3489,-0.3485,0,0,0,0,0,0,-0.3554,-0.3559,-0.3611,-0.3612,-0.3616,-0.3636,-0.3647,-0.3669,-0.369,-0.3697,-0.3712,-0.3721,-0.3716,-0.3714,-0.371,-0.3609,-0.3719,-0.3716,-0.3714,-0.3492,-0.3488,-0.3484,0,0,0,0,0,0,-0.3552,-0.3559,-0.361,-0.3583,-0.3589,-0.3635,-0.3657,-0.3667,-0.3669,-0.3692,-0.37,-0.3705,-0.3719,-0.3715,-0.367,-0.361,-0.3714,-0.3711,-0.3497,-0.3491,-0.3486,-0.3396,0,0,0,0,0,0,-0.355,-0.3559,-0.3569,-0.3584,-0.359,-0.3574,-0.3654,-0.3665,-0.3661,-0.3673,-0.3687,-0.3692,-0.3722,-0.3675,-0.3666,-0.3607,-0.3708,-0.3502,-0.3494,-0.3488,-0.3404,-0.3388,-0.3374,0,0,0,0,0,-0.3548,-0.352,-0.357,-0.3575,-0.3606,-0.3572,-0.3571,-0.3617,-0.3657,-0.3637,-0.3655,-0.3692,-0.3622,-0.3668,-0.3659,-0.3598,-0.3506,-0.3497,-0.3488,-0.3411,-0.3391,-0.3374,0,0,0,0,0,0,-0.3468,-0.3529,-0.3584,-0.3575,-0.3579,-0.359,-0.3556,-0.3596,-0.3592,-0.3599,-0.3643,-0.3645,-0.3587,-0.3585,-0.3636,-0.3506,-0.3566,-0.3555,-0.351,-0.3492,-0.3477,-0.3437,-0.3705,0,0,0,0,0,-0.3462,-0.3473,-0.3517,-0.35,-0.3496,-0.3527,-0.3518,-0.355,-0.3549,-0.3554,-0.3572,-0.3565,-0.3534,-0.3514,-0.3494,-0.3408,-0.341,-0.3358,-0.3343,-0.3331,-0.3287,-0.327,-0.3251,-0.3455,-0.3455,-0.3455,0,0,-0.3413,-0.3454,-0.3454,-0.3486,-0.3485,-0.3438,-0.353,-0.3493,-0.3458,-0.3544,-0.3491,-0.3514,-0.3501,-0.3432,-0.3401,-0.3428,-0.3268,-0.3319,-0.331,-0.3271,-0.3259,-0.324,-0.3223,-0.3449,-0.345,-0.3451,0,0,-0.3268,-0.3363,-0.33,-0.3315,-0.3324,-0.3352,-0.3339,-0.3353,-0.337,-0.3326,-0.3378,-0.3355,-0.3317,-0.3297,-0.3279,-0.3147,-0.3199,-0.315,-0.3032,-0.3017,-0.3001,-0.2987,-0.2955,-0.2939,-0.3134,-0.3133,-0.3133,0,-0.3194,-0.3183,-0.3264,-0.3206,-0.3218,-0.3304,-0.3234,-0.3231,-0.3237,-0.3242,-0.3293,-0.3246,-0.3238,-0.3146,-0.3105,-0.3111,-0.3122,-0.3115,-0.3002,-0.2988,-0.2975,-0.2945,-0.2929,-0.3128,-0.3129,-0.3129,-0.313,0,-0.2998,-0.3017,-0.2968,-0.2966,-0.297,-0.2934,-0.297,-0.2973,-0.3027,-0.3052,-0.3016,-0.3022,-0.3008,-0.2989,-0.2999,-0.2893,-0.2936,-0.3002,-0.306,-0.295,-0.2925,-0.2909,-0.312,-0.3122,-0.3124,-0.3125,0,0,-0.2766,-0.2826,-0.2814,-0.2849,-0.2877,-0.2871,-0.2809,-0.2813,-0.2815,-0.2817,-0.2804,-0.2727,-0.2792,-0.2768,-0.2796,-0.2751,-0.266,-0.2823,-0.2825,-0.2809,-0.2624,-0.257,-0.2549,-0.274,-0.2737,-0.2735,-0.2641,0,-0.2595,-0.2529,-0.2581,-0.2535,-0.2534,-0.2635,-0.2599,-0.2621,-0.267,-0.268,-0.2681,-0.2677,-0.269,-0.2713,-0.2657,-0.2693,-0.2616,-0.2678,-0.2713,-0.2712,-0.2695,-0.2527,-0.2406,-0.2306,-0.2627,-0.2624,-0.2622,0,-0.2393,-0.2415,-0.2355,-0.2467,-0.2463,-0.2432,-0.2502,-0.248,-0.2503,-0.2545,-0.2537,-0.2587,-0.2508,-0.2565,-0.2491,-0.255,-0.2536,-0.2546,-0.2546,-0.2507,-0.2627,-0.2465,-0.2266,-0.2264,-0.2599,-0.2601,-0.2603,0,-0.2292,-0.2281,-0.2278,-0.23,-0.2373,-0.2367,-0.2399,-0.2436,-0.2453,-0.247,-0.2502,-0.2461,-0.247,-0.2436,-0.2438,-0.248,-0.238,-0.2463,-0.2374,-0.2373,-0.227,-0.2263,-0.208,-0.2351,-0.2351,-0.2352,-0.2352,0,-0.2173,-0.2168,-0.2244,-0.2253,-0.225,-0.232,-0.2316,-0.2351,-0.239,-0.2396,-0.2434,-0.2421,-0.2445,-0.2418,-0.2401,-0.2322,-0.2348,-0.2282,-0.2318,-0.2232,-0.2224,-0.2223,-0.2281,-0.2348,-0.2349,-0.235,-0.235,0,-0.2074,-0.2125,-0.2133,-0.2198,-0.2214,-0.2216,-0.2278,-0.2288,-0.2339,-0.2346,-0.2352,-0.2386,-0.2341,-0.234,-0.23,-0.2277,-0.2176,-0.2181,-0.2063,-0.2082,-0.1993,-0.2051,-0.1903,-0.1851,-0.2047,-0.2045,-0.2043,0,-0.2023,-0.2018,-0.208,-0.2088,-0.2111,-0.2135,-0.2156,-0.2239,-0.2265,-0.2308,-0.2304,-0.2283,-0.222,-0.2135,-0.2087,-0.2006,-0.2053,-0.1882,-0.1898,-0.189,-0.1984,-0.2044,-0.2016,-0.1731,-0.1727,-0.1723,-0.172,0,-0.1914,-0.1937,-0.1954,-0.1979,-0.2001,-0.2027,-0.2071,-0.2087,-0.2178,-0.217,-0.2144,-0.2089,-0.2019,-0.1883,-0.1817,-0.1764,-0.1838,-0.1806,-0.1822,-0.1691,-0.1717,-0.1719,-0.1905,-0.1688,-0.1692,-0.1694,-0.1696,-0.1697,-0.1814,-0.1804,-0.1833,-0.1843,-0.188,-0.1894,-0.1827,-0.1881,-0.1867,-0.1757,-0.1903,-0.1696,-0.1755,-0.1613,-0.1575,-0.1494,-0.1579,-0.1462,-0.1524,-0.1579,-0.1524,-0.1616,-0.1442,-0.1444,-0.1445,-0.1447,-0.1448,0,-0.1677,-0.1688,-0.1696,-0.1722,-0.1712,-0.1751,-0.1739,-0.161,-0.1488,-0.1402,-0.1312,-0.1277,-0.1239,-0.1277,-0.1306,-0.125,-0.1238,-0.1236,-0.1282,-0.1261,-0.1334,-0.1315,-0.1074,-0.1074,-0.1075,-0.1075,-0.1075,-0.1075,-0.1604,-0.1565,-0.1582,-0.1533,-0.1533,-0.1385,-0.1298,-0.1126,-0.0976,-0.0705,-0.0553,-0.0535,-0.0849,-0.1218,-0.1248,-0.118,-0.1188,-0.1126,-0.1198,-0.1264,-0.129,-0.1316,-0.1306,-0.1068,-0.1068,-0.1041,-0.1041,-0.1041]},{"header":{"parameterUnit":"m.s-1","parameterCategory":2,"la1":30.2991,"la2":30.254,"lo1":-89.0895,"lo2":-89.0444,"dy":0.0017,"dx":0.0017,"nx":28,"ny":28,"refTime":"2024-08-26T21:00:00:Z","depth":"0","parameterNumber":3,"parameterNumberName":"V-component_of_CURRENTS"},"data":[0,0,0,0,0,0,0,0,0,0,0,0,0,0,0,0,0,0,0,0,0,0,0,0,0,0,0,0,0,0,0,0,0,0,0,0,0,0,0,0,0,0,0,0,0,0,0,0,0,0,0,0,0,0,0,0,0,0,-0.0049,-0.0047,0,0.0182,0.0185,0.0188,0.0434,0.0437,0.044,0.0442,0.0782,0.0789,0.0795,0,0,0,0,0,0,0,0,0,0,0,0,0,-0.0197,-0.0195,-0.0049,-0.0047,-0.0045,0.0182,0.0185,0.0189,0.0433,0.0437,0.044,0.0444,0.078,0.0788,0.0796,0,0,0,0,0,0,0,0,0,0,0,0,0,-0.006,-0.0195,-0.005,0.01,0.0115,0.0181,0.0186,0.019,0.0433,0.0437,0.0441,0.0445,0.0778,0.0787,0.0797,0.0771,0,0,0.0826,0.083,0,0,0,0,0,0,0,0,-0.0068,-0.0054,0.0075,0.0089,0.0106,0.0278,0.0258,0.0387,0.0432,0.0319,0.0442,0.0447,0.0616,0.0639,0.0681,0.0786,0.0801,0.0827,0.0833,0.0837,0.084,0,0,0,0,0,0,0,-0.0078,-0.0062,0.0049,0.0077,0.0096,0.0183,0.0207,0.0284,0.0448,0.0329,0.0346,0.036,0.0627,0.0671,0.0691,0.0806,0.0827,0.0835,0.0841,0.0845,0.0982,0.098,0,0,0,0,0,0,-0.0129,-0.0072,0.0042,0.0055,0.002,0.0181,0.0209,0.0224,0.0445,0.048,0.0356,0.037,0.0653,0.068,0.0704,0.075,0.0837,0.0846,0.0851,0.0984,0.0981,0.0979,0,0,0,0,0,0,-0.0133,-0.0121,0.0032,-0.0008,0.0017,0.0178,0.0194,0.0226,0.0276,0.0463,0.0503,0.0373,0.0657,0.0691,0.0766,0.0763,0.085,0.0859,0.0986,0.0983,0.098,0.08,0,0,0,0,0,0,-0.0138,-0.0124,-0.0134,-0.0012,0.0017,0.0068,0.019,0.0227,0.0275,0.0296,0.049,0.0527,0.0663,0.075,0.0775,0.0777,0.0866,0.0989,0.0985,0.0981,0.0808,0.0791,0.0776,0,0,0,0,0,-0.0144,-0.017,-0.0136,-0.0123,-0.0001,0.0065,0.0088,0.0223,0.027,0.0284,0.0404,0.0521,0.0744,0.0755,0.0785,0.0791,0.0991,0.0986,0.0982,0.0816,0.0794,0.0776,0,0,0,0,0,0,-0.0239,-0.0145,-0.0105,-0.01,-0.0032,0.0105,0.0119,0.0189,0.029,0.0311,0.0485,0.0528,0.0602,0.0693,0.07,0.0814,0.0889,0.089,0.0753,0.0734,0.0718,0.0685,0.0874,0,0,0,0,0,-0.0276,-0.0264,-0.0168,-0.0169,-0.0147,-0.0031,0.0007,0.009,0.0192,0.0243,0.0371,0.0496,0.0599,0.0661,0.0768,0.0807,0.0872,0.083,0.0814,0.0799,0.079,0.0845,0.0833,0.0963,0.0963,0.0963,0,0,-0.0315,-0.0265,-0.0257,-0.0189,-0.0127,-0.0095,0.0006,0.0047,0.0087,0.0256,0.0336,0.0441,0.0593,0.0666,0.0706,0.0747,0.0792,0.0793,0.078,0.0779,0.0839,0.0826,0.0815,0.096,0.0961,0.0961,0,0,-0.0376,-0.0349,-0.035,-0.0307,-0.0236,-0.0165,-0.0171,-0.0056,0.001,0.0073,0.021,0.0286,0.0448,0.0555,0.0629,0.0567,0.07,0.061,0.0513,0.0565,0.0555,0.0547,0.0593,0.0591,0.0606,0.0605,0.0605,0,-0.0427,-0.0406,-0.0345,-0.0333,-0.0304,-0.0211,-0.0203,-0.014,-0.0011,0.0025,0.0081,0.0282,0.0399,0.0489,0.0481,0.0534,0.0583,0.0579,0.0543,0.0537,0.0532,0.0582,0.0581,0.0596,0.0597,0.0598,0.0599,0,-0.0464,-0.0457,-0.0466,-0.0412,-0.0382,-0.0369,-0.0283,-0.0248,-0.0179,-0.0097,-0.0011,0.0125,0.0254,0.0292,0.0378,0.0402,0.0453,0.0512,0.0591,0.0508,0.0565,0.0568,0.0583,0.0586,0.0589,0.0591,0,0,-0.0537,-0.0497,-0.0497,-0.0488,-0.0422,-0.0398,-0.0373,-0.0306,-0.0279,-0.0183,-0.0133,-0.0002,0.0063,0.0145,0.025,0.0284,0.0281,0.0367,0.0375,0.0407,0.039,0.0442,0.0452,0.0336,0.0336,0.0336,0.0438,0,-0.0576,-0.0587,-0.0543,-0.0548,-0.0547,-0.0475,-0.0452,-0.0389,-0.0315,-0.025,-0.0146,-0.0053,0.0013,0.0072,0.0107,0.0262,0.0283,0.0247,0.0471,0.0478,0.053,0.0455,0.0509,0.0605,0.0442,0.0442,0.0443,0,-0.0604,-0.0608,-0.0629,-0.0607,-0.06,-0.0589,-0.0541,-0.0504,-0.0411,-0.0353,-0.0278,-0.017,-0.009,-0.0029,0.0133,0.0111,0.0217,0.0312,0.032,0.0437,0.0535,0.0667,0.0619,0.0775,0.0449,0.0448,0.0448,0,-0.0666,-0.066,-0.0684,-0.0676,-0.0641,-0.0639,-0.0613,-0.0539,-0.0505,-0.0417,-0.0376,-0.0262,-0.0174,-0.0058,0.0138,0.0139,0.0316,0.0359,0.0494,0.05,0.0624,0.0641,0.0753,0.0436,0.0436,0.0435,0.0435,0,-0.0712,-0.0726,-0.0719,-0.0732,-0.0754,-0.0705,-0.0704,-0.0658,-0.0587,-0.0536,-0.0438,-0.0362,-0.0179,-0.0037,0.0107,0.0314,0.0298,0.0459,0.0523,0.056,0.0569,0.0779,0.0841,0.0439,0.0438,0.0438,0.0437,0,-0.0766,-0.0762,-0.0789,-0.0784,-0.0784,-0.0801,-0.0769,-0.0757,-0.0688,-0.0618,-0.059,-0.0425,-0.0233,-0.0051,0.0183,0.03,0.0585,0.0555,0.058,0.0643,0.0894,0.0943,0.1109,0.121,0.0703,0.0704,0.0706,0,-0.0793,-0.0815,-0.0842,-0.0866,-0.0867,-0.0879,-0.088,-0.0818,-0.0783,-0.0634,-0.0593,-0.0406,-0.0223,0.0106,0.0341,0.0586,0.0693,0.0756,0.0756,0.0897,0.1,0.102,0.1094,0.0849,0.0851,0.0853,0.0855,0,-0.0841,-0.0852,-0.088,-0.0935,-0.0957,-0.0964,-0.0947,-0.0921,-0.0811,-0.0666,-0.0459,-0.0304,-0.0037,0.0288,0.0558,0.0696,0.0875,0.0806,0.0959,0.1114,0.1139,0.1272,0.0787,0.0874,0.0872,0.0871,0.087,0.0869,-0.087,-0.091,-0.0947,-0.0991,-0.1016,-0.1001,-0.0905,-0.0827,-0.0661,-0.0329,-0.0285,0.009,0.0304,0.071,0.086,0.1132,0.1066,0.1218,0.1262,0.1267,0.1366,0.0905,0.106,0.1059,0.1058,0.1058,0.1057,0,-0.0895,-0.0936,-0.0993,-0.1003,-0.0977,-0.0983,-0.0892,-0.0708,-0.0387,-0.0113,0.0213,0.0649,0.0947,0.1135,0.141,0.1581,0.1622,0.1649,0.1701,0.1755,0.1369,0.1379,0.1602,0.1602,0.1602,0.1602,0.1601,0.1601,-0.0909,-0.0967,-0.0998,-0.0948,-0.0902,-0.0703,-0.0576,-0.0315,-0.0062,0.0507,0.0905,0.113,0.1287,0.1683,0.1958,0.1986,0.2157,0.2116,0.2205,0.1952,0.1915,0.188,0.1905,0.2234,0.2235,0.2592,0.2595,0.2598]}],[{"header":{"parameterUnit":"m.s-1","parameterCategory":2,"la1":30.2991,"la2":30.254,"lo1":-89.0895,"lo2":-89.0444,"dy":0.0017,"dx":0.0017,"nx":28,"ny":28,"refTime":"2024-08-26T21:00:00:Z","depth":"2","parameterNumber":2,"parameterNumberName":"U-component_of_CURRENTS"},"data":[0,0,0,0,0,0,0,0,0,0,0,0,0,0,0,0,0,0,0,0,0,0,0,0,0,0,0,0,0,0,0,0,0,0,0,0,0,0,0,0,0,0,0,0,0,0,0,0,0,0,0,0,0,0,0,0,0,0,-0.2422,-0.2424,0,-0.255,-0.2552,-0.2553,-0.2562,-0.256,-0.2559,-0.2557,-0.2637,-0.2641,-0.2644,0,0,0,0,0,0,0,0,0,0,0,0,0,-0.2338,-0.2339,-0.2422,-0.2424,-0.2425,-0.255,-0.2552,-0.2554,-0.2562,-0.256,-0.2558,-0.2556,-0.2636,-0.264,-0.2645,0,0,0,0,0,0,0,0,0,0,0,0,0,-0.2413,-0.2339,-0.2422,-0.2443,-0.2446,-0.255,-0.2552,-0.2554,-0.2562,-0.256,-0.2558,-0.2555,-0.2635,-0.264,-0.2645,-0.2727,0,0,-0.2662,-0.2664,0,0,0,0,0,0,0,0,-0.2408,-0.2416,-0.2439,-0.2442,-0.2445,-0.2536,-0.2552,-0.2609,-0.2563,-0.252,-0.2557,-0.2554,-0.26,-0.2608,-0.264,-0.2731,-0.2734,-0.2662,-0.2666,-0.2668,-0.2669,0,0,0,0,0,0,0,-0.2403,-0.2411,-0.2475,-0.244,-0.2444,-0.2499,-0.2505,-0.2564,-0.2572,-0.2524,-0.2524,-0.2536,-0.2601,-0.2635,-0.2642,-0.2735,-0.2662,-0.2667,-0.267,-0.2672,-0.2781,-0.2781,0,0,0,0,0,0,-0.2379,-0.2406,-0.2471,-0.2478,-0.2419,-0.2501,-0.2509,-0.2511,-0.2573,-0.258,-0.2538,-0.2536,-0.2627,-0.2636,-0.2645,-0.2642,-0.2668,-0.2673,-0.2676,-0.2782,-0.2781,-0.2781,0,0,0,0,0,0,-0.2376,-0.2383,-0.2465,-0.2444,-0.2458,-0.2504,-0.2507,-0.2515,-0.2555,-0.2584,-0.259,-0.2571,-0.2625,-0.2637,-0.2668,-0.2649,-0.2675,-0.268,-0.2782,-0.2782,-0.2781,-0.2703,0,0,0,0,0,0,-0.2373,-0.2381,-0.2382,-0.2442,-0.2458,-0.2506,-0.2509,-0.2519,-0.2565,-0.2564,-0.2614,-0.2619,-0.2624,-0.2659,-0.2673,-0.2657,-0.2685,-0.2783,-0.2782,-0.2781,-0.2706,-0.27,-0.2695,0,0,0,0,0,-0.237,-0.2368,-0.2381,-0.239,-0.2455,-0.2506,-0.252,-0.2547,-0.2569,-0.2578,-0.26,-0.2617,-0.2664,-0.2664,-0.268,-0.2665,-0.2783,-0.2782,-0.2781,-0.2709,-0.2701,-0.2695,0,0,0,0,0,0,-0.2333,-0.2371,-0.2386,-0.2397,-0.2441,-0.2506,-0.2524,-0.2564,-0.2601,-0.2597,-0.2631,-0.2637,-0.2642,-0.2682,-0.2682,-0.2693,-0.2721,-0.2724,-0.266,-0.2654,-0.2648,-0.2613,-0.2689,0,0,0,0,0,-0.2328,-0.2334,-0.2386,-0.2397,-0.2416,-0.2484,-0.2515,-0.2537,-0.2576,-0.2592,-0.2624,-0.2651,-0.2658,-0.2677,-0.2691,-0.2731,-0.273,-0.2727,-0.2721,-0.2716,-0.2697,-0.2684,-0.2675,-0.2778,-0.2778,-0.2778,0,0,-0.2317,-0.2341,-0.2345,-0.2391,-0.243,-0.245,-0.2495,-0.2536,-0.2543,-0.2597,-0.2615,-0.2635,-0.2662,-0.2663,-0.2672,-0.2694,-0.2684,-0.2715,-0.271,-0.2694,-0.2682,-0.2672,-0.2663,-0.2778,-0.2778,-0.2778,0,0,-0.2297,-0.2322,-0.232,-0.2354,-0.2406,-0.2439,-0.2454,-0.252,-0.2532,-0.2564,-0.2578,-0.2582,-0.264,-0.2626,-0.2633,-0.2621,-0.2645,-0.2643,-0.26,-0.2587,-0.2578,-0.257,-0.2542,-0.2532,-0.2652,-0.2651,-0.2651,0,-0.2289,-0.2288,-0.2331,-0.2343,-0.2366,-0.243,-0.244,-0.2467,-0.253,-0.2541,-0.2545,-0.2589,-0.2603,-0.2595,-0.2566,-0.2602,-0.2605,-0.262,-0.2577,-0.2569,-0.2562,-0.2535,-0.2525,-0.2648,-0.2648,-0.2648,-0.2649,0,-0.2262,-0.2273,-0.2279,-0.2303,-0.2333,-0.2355,-0.2392,-0.2418,-0.2449,-0.2475,-0.2479,-0.2494,-0.2519,-0.252,-0.2534,-0.2503,-0.2522,-0.2559,-0.2587,-0.2546,-0.2521,-0.2512,-0.2642,-0.2643,-0.2645,-0.2646,0,0,-0.2201,-0.2252,-0.2249,-0.2268,-0.2316,-0.2341,-0.2345,-0.2372,-0.2386,-0.2408,-0.2415,-0.2398,-0.2426,-0.2434,-0.2461,-0.2443,-0.2377,-0.2479,-0.248,-0.2436,-0.2344,-0.2276,-0.226,-0.2419,-0.2417,-0.2416,-0.2341,0,-0.2168,-0.2183,-0.221,-0.2224,-0.224,-0.2293,-0.2297,-0.2328,-0.2353,-0.2371,-0.2372,-0.2384,-0.2391,-0.2408,-0.2382,-0.2395,-0.2353,-0.2393,-0.2402,-0.2401,-0.2335,-0.2247,-0.2081,-0.1993,-0.2332,-0.233,-0.2329,0,-0.2113,-0.2139,-0.2147,-0.2204,-0.2214,-0.2223,-0.226,-0.2277,-0.2305,-0.2327,-0.2334,-0.2358,-0.2332,-0.2346,-0.2304,-0.2341,-0.2316,-0.231,-0.2309,-0.2263,-0.2315,-0.2094,-0.1964,-0.2314,-0.2315,-0.2317,-0.2318,0,-0.2046,-0.2088,-0.2096,-0.2115,-0.218,-0.2189,-0.2218,-0.2257,-0.2276,-0.2302,-0.2319,-0.2313,-0.2315,-0.2286,-0.2265,-0.2293,-0.2212,-0.226,-0.2162,-0.2158,-0.2022,-0.2008,-0.2187,-0.2187,-0.2187,-0.2188,-0.2188,0,-0.1994,-0.1999,-0.2069,-0.2078,-0.209,-0.2151,-0.2163,-0.22,-0.2242,-0.225,-0.2292,-0.2283,-0.2301,-0.2272,-0.2245,-0.2161,-0.2194,-0.2111,-0.212,-0.199,-0.1975,-0.2273,-0.2284,-0.2185,-0.2186,-0.2186,-0.2187,0,-0.191,-0.1958,-0.1975,-0.2041,-0.2059,-0.2067,-0.2133,-0.2147,-0.2201,-0.2211,-0.2219,-0.2256,-0.2208,-0.2202,-0.2155,-0.2128,-0.2067,-0.2024,-0.186,-0.1848,-0.2025,-0.2033,-0.1902,-0.1899,-0.1896,-0.1894,-0.1892,0,-0.1865,-0.1866,-0.193,-0.194,-0.1965,-0.1996,-0.2018,-0.2103,-0.2125,-0.2174,-0.2166,-0.215,-0.2089,-0.2004,-0.1938,-0.1853,-0.1951,-0.1686,-0.169,-0.1966,-0.1989,-0.2002,-0.2013,-0.1478,-0.1473,-0.1469,-0.1465,0,-0.1773,-0.1795,-0.1814,-0.1838,-0.1862,-0.1891,-0.1933,-0.1943,-0.2028,-0.2041,-0.2014,-0.1968,-0.1884,-0.1719,-0.1644,-0.1584,-0.1693,-0.1597,-0.1906,-0.1587,-0.1563,-0.1587,-0.1613,-0.1427,-0.1431,-0.1434,-0.1436,-0.1437,-0.1686,-0.1678,-0.1703,-0.171,-0.1742,-0.1744,-0.1707,-0.1768,-0.1767,-0.1747,-0.1808,-0.1698,-0.1653,-0.143,-0.1341,-0.129,-0.141,-0.1373,-0.1387,-0.1406,-0.1381,-0.1354,-0.1173,-0.1175,-0.1177,-0.1179,-0.118,0,-0.1565,-0.1569,-0.1573,-0.1567,-0.1531,-0.1602,-0.1612,-0.1552,-0.1489,-0.1529,-0.1486,-0.1299,-0.1174,-0.1145,-0.0991,-0.0966,-0.097,-0.0944,-0.0951,-0.0987,-0.102,-0.0978,-0.0662,-0.0661,-0.066,-0.0659,0,0,-0.1501,-0.1459,-0.1462,-0.1348,-0.1335,-0.1243,-0.1209,-0.1167,-0.1158,-0.1085,-0.1052,-0.1122,-0.1107,-0.0899,-0.0831,-0.0725,-0.0855,-0.0684,-0.1092,-0.1135,-0.1167,-0.1248,-0.1221,0,0,0,0,0]},{"header":{"parameterUnit":"m.s-1","parameterCategory":2,"la1":30.2991,"la2":30.254,"lo1":-89.0895,"lo2":-89.0444,"dy":0.0017,"dx":0.0017,"nx":28,"ny":28,"refTime":"2024-08-26T21:00:00:Z","depth":"2","parameterNumber":3,"parameterNumberName":"V-component_of_CURRENTS"},"data":[0,0,0,0,0,0,0,0,0,0,0,0,0,0,0,0,0,0,0,0,0,0,0,0,0,0,0,0,0,0,0,0,0,0,0,0,0,0,0,0,0,0,0,0,0,0,0,0,0,0,0,0,0,0,0,0,0,0,-0.0362,-0.0361,0,-0.0234,-0.0233,-0.0231,-0.0165,-0.0165,-0.0165,-0.0165,-0.0009,-0.0005,-0.0001,0,0,0,0,0,0,0,0,0,0,0,0,0,-0.0439,-0.0439,-0.0363,-0.0361,-0.036,-0.0235,-0.0233,-0.0231,-0.0165,-0.0165,-0.0165,-0.0165,-0.0011,-0.0006,-0.0001,0,0,0,0,0,0,0,0,0,0,0,0,0,-0.0367,-0.0439,-0.0363,-0.0313,-0.0308,-0.0235,-0.0233,-0.023,-0.0165,-0.0165,-0.0165,-0.0165,-0.0012,-0.0006,0.0,0.0042,0,0,0.002,0.0022,0,0,0,0,0,0,0,0,-0.0371,-0.0364,-0.0322,-0.0317,-0.031,-0.0218,-0.0203,-0.0138,-0.0165,-0.0217,-0.0165,-0.0166,-0.0077,-0.0066,-0.0039,0.005,0.0056,0.002,0.0024,0.0027,0.0028,0,0,0,0,0,0,0,-0.0376,-0.0368,-0.031,-0.0321,-0.0313,-0.0259,-0.025,-0.019,-0.0146,-0.0213,-0.0208,-0.0197,-0.0074,-0.0045,-0.0035,0.0059,0.002,0.0026,0.003,0.0032,0.0231,0.0232,0,0,0,0,0,0,-0.0402,-0.0374,-0.0314,-0.0306,-0.0344,-0.0259,-0.0248,-0.0246,-0.0147,-0.0133,-0.0197,-0.0194,-0.0056,-0.0042,-0.0029,0.0025,0.0027,0.0033,0.0036,0.023,0.0231,0.0233,0,0,0,0,0,0,-0.0404,-0.0398,-0.0319,-0.0338,-0.0324,-0.0258,-0.0255,-0.0243,-0.0213,-0.0136,-0.0121,-0.018,-0.0056,-0.0038,0.0024,0.0031,0.0035,0.0041,0.0228,0.023,0.0232,0.0133,0,0,0,0,0,0,-0.0407,-0.04,-0.0404,-0.034,-0.0324,-0.0284,-0.0255,-0.024,-0.0207,-0.0202,-0.0116,-0.0102,-0.0055,0.0014,0.003,0.004,0.0046,0.0226,0.0229,0.0231,0.0135,0.0132,0.0129,0,0,0,0,0,-0.041,-0.0414,-0.0405,-0.0397,-0.0334,-0.0284,-0.0271,-0.0222,-0.0207,-0.0195,-0.0137,-0.0105,0.0044,0.002,0.0038,0.005,0.0225,0.0228,0.0231,0.0136,0.0132,0.0129,0,0,0,0,0,0,-0.0444,-0.0406,-0.0395,-0.0386,-0.0345,-0.0274,-0.0258,-0.0225,-0.0168,-0.0165,-0.0093,-0.0074,-0.0019,0.0039,0.0011,0.0122,0.0143,0.015,0.0064,0.0062,0.0059,0.0041,0.0052,0,0,0,0,0,-0.0458,-0.0453,-0.0405,-0.0397,-0.0382,-0.0322,-0.0295,-0.0264,-0.0207,-0.0183,-0.0122,-0.0049,0.0012,0.0052,0.0112,0.0173,0.0215,0.02,0.0197,0.0194,0.0196,0.0254,0.0256,0.0244,0.0244,0.0244,0,0,-0.0468,-0.0447,-0.0443,-0.0405,-0.0369,-0.0345,-0.0305,-0.0272,-0.0247,-0.0174,-0.0121,-0.0064,0.0024,0.0083,0.0116,0.0132,0.022,0.0198,0.0194,0.0198,0.0258,0.0258,0.0259,0.0246,0.0246,0.0245,0,0,-0.0483,-0.0471,-0.0471,-0.0443,-0.0401,-0.0363,-0.0359,-0.0293,-0.0262,-0.021,-0.015,-0.0088,0.0009,0.0075,0.012,0.0148,0.0194,0.0172,0.0152,0.0207,0.0208,0.0209,0.0251,0.0256,0.0181,0.0181,0.018,0,-0.0499,-0.0494,-0.0461,-0.045,-0.0431,-0.0378,-0.0368,-0.0324,-0.0245,-0.0218,-0.0206,-0.0061,0.0006,0.0089,0.0099,0.0139,0.017,0.0144,0.0199,0.0201,0.0203,0.0247,0.0254,0.0176,0.0177,0.0177,0.0178,0,-0.0508,-0.0506,-0.0502,-0.0477,-0.0451,-0.0435,-0.0381,-0.0349,-0.0312,-0.0263,-0.0191,-0.0101,-0.0013,0.0021,0.0067,0.0132,0.0147,0.0172,0.0191,0.0198,0.0244,0.0253,0.017,0.0172,0.0173,0.0174,0,0,-0.0543,-0.0517,-0.0517,-0.0517,-0.0469,-0.045,-0.0414,-0.0364,-0.034,-0.0269,-0.0227,-0.0119,-0.0077,-0.002,0.0051,0.0108,0.0149,0.0142,0.0147,0.0155,0.0258,0.0279,0.0292,0.0171,0.0173,0.0174,0.0276,0,-0.0563,-0.0568,-0.0539,-0.0536,-0.0535,-0.0483,-0.0454,-0.0402,-0.0351,-0.0296,-0.0204,-0.0139,-0.0089,-0.0052,0.0011,0.0118,0.0171,0.0118,0.0277,0.0282,0.0276,0.0303,0.0274,0.0364,0.0286,0.0287,0.0288,0,-0.0582,-0.0586,-0.0597,-0.0578,-0.0572,-0.0559,-0.0516,-0.048,-0.0392,-0.0352,-0.0276,-0.0203,-0.0097,-0.0065,0.0103,0.0061,0.015,0.0227,0.0233,0.0296,0.0321,0.0353,0.0385,0.0304,0.0303,0.0302,0.0301,0,-0.0634,-0.0624,-0.0642,-0.0635,-0.0602,-0.0596,-0.0573,-0.0502,-0.0472,-0.0386,-0.0357,-0.0232,-0.016,-0.0042,0.0119,0.0108,0.0294,0.0304,0.0408,0.041,0.0442,0.0444,0.0416,0.0416,0.0415,0.0415,0.0415,0,-0.0671,-0.0682,-0.0673,-0.0683,-0.0699,-0.0654,-0.0649,-0.0605,-0.0535,-0.0491,-0.0394,-0.0325,-0.0152,-0.0022,0.0106,0.0288,0.0288,0.0411,0.0444,0.0408,0.0406,0.0403,0.04,0.0419,0.0418,0.0417,0.0417,0,-0.0721,-0.0714,-0.0737,-0.0728,-0.0727,-0.0741,-0.071,-0.0697,-0.063,-0.0569,-0.0543,-0.0383,-0.0208,-0.0038,0.018,0.0281,0.0446,0.0509,0.0447,0.0472,0.0522,0.0513,0.0628,0.063,0.0631,0.0633,0.0634,0,-0.0746,-0.0765,-0.0786,-0.0809,-0.0809,-0.0819,-0.0818,-0.0755,-0.0726,-0.059,-0.0556,-0.038,-0.0228,0.0078,0.0288,0.0508,0.0507,0.0596,0.0581,0.0526,0.0547,0.0536,0.0526,0.0582,0.0583,0.0583,0.0584,0,-0.0793,-0.0803,-0.0827,-0.0879,-0.0899,-0.0911,-0.0897,-0.0883,-0.0783,-0.0715,-0.0565,-0.0433,-0.0124,0.0134,0.0406,0.0523,0.0553,0.0612,0.0594,0.0527,0.049,0.0508,0.0498,0.0588,0.0587,0.0587,0.0587,0.0586,-0.0825,-0.0862,-0.0897,-0.0942,-0.0969,-0.0981,-0.0983,-0.0937,-0.0877,-0.0744,-0.0592,-0.0384,-0.0111,0.0276,0.0479,0.0639,0.0639,0.0669,0.0665,0.0661,0.0632,0.06,0.0711,0.0711,0.0712,0.0712,0.0712,0,-0.0859,-0.0899,-0.0952,-0.1005,-0.1042,-0.1036,-0.1014,-0.0982,-0.0906,-0.0752,-0.0596,-0.0297,0.0001,0.026,0.0538,0.0715,0.0687,0.0717,0.0658,0.0653,0.0649,0.0616,0.0693,0.0694,0.0694,0.0694,0,0,-0.088,-0.0938,-0.0967,-0.1043,-0.108,-0.1096,-0.108,-0.1008,-0.0887,-0.0727,-0.0571,-0.0345,0.0013,0.0202,0.0433,0.0576,0.0558,0.057,0.0568,0.0467,0.0461,0.0606,0.0549,0,0,0,0,0]}],[{"header":{"parameterUnit":"m.s-1","parameterCategory":2,"la1":30.2991,"la2":30.254,"lo1":-89.0895,"lo2":-89.0444,"dy":0.0017,"dx":0.0017,"nx":28,"ny":28,"refTime":"2024-08-26T21:00:00:Z","depth":"4","parameterNumber":2,"parameterNumberName":"U-component_of_CURRENTS"},"data":[0,0,0,0,0,0,0,0,0,0,0,0,0,0,0,0,0,0,0,0,0,0,0,0,0,0,0,0,0,0,0,0,0,0,0,0,0,0,0,0,0,0,0,0,0,0,0,0,0,0,0,0,0,0,0,0,0,0,-0.1498,-0.1498,0,-0.156,-0.156,-0.1561,-0.1576,-0.1576,-0.1575,-0.1575,-0.161,-0.1611,-0.1612,0,0,0,0,0,0,0,0,0,0,0,0,0,-0.1422,-0.1423,-0.1498,-0.1499,-0.1499,-0.156,-0.156,-0.1561,-0.1576,-0.1576,-0.1575,-0.1575,-0.1609,-0.1611,-0.1612,0,0,0,0,0,0,0,0,0,0,0,0,0,-0.1465,-0.1423,-0.1498,-0.1515,-0.1517,-0.1559,-0.156,-0.1561,-0.1576,-0.1576,-0.1575,-0.1575,-0.1609,-0.1611,-0.1613,-0.1633,0,0,-0.1618,-0.1619,0,0,0,0,0,0,0,0,-0.1463,-0.1468,-0.1512,-0.1514,-0.1516,-0.1561,-0.1547,-0.1584,-0.1576,-0.1552,-0.1575,-0.1574,-0.1592,-0.1595,-0.1607,-0.1635,-0.1636,-0.1618,-0.1619,-0.162,-0.1621,0,0,0,0,0,0,0,-0.146,-0.1465,-0.1521,-0.1513,-0.1516,-0.153,-0.1535,-0.1554,-0.1573,-0.1555,-0.1556,-0.1565,-0.1593,-0.1605,-0.1607,-0.1637,-0.1618,-0.162,-0.1621,-0.1622,-0.1703,-0.1704,0,0,0,0,0,0,-0.1453,-0.1463,-0.1519,-0.1523,-0.1489,-0.1532,-0.1537,-0.1546,-0.1573,-0.1577,-0.1565,-0.1565,-0.1602,-0.1605,-0.1609,-0.1656,-0.162,-0.1622,-0.1623,-0.1702,-0.1703,-0.1705,0,0,0,0,0,0,-0.1452,-0.1458,-0.1517,-0.1495,-0.1504,-0.1533,-0.1543,-0.1547,-0.1581,-0.1582,-0.1585,-0.1596,-0.1602,-0.1606,-0.1644,-0.1656,-0.1623,-0.1624,-0.1701,-0.1702,-0.1704,-0.1736,0,0,0,0,0,0,-0.1449,-0.1457,-0.1476,-0.1495,-0.1505,-0.1549,-0.1544,-0.1549,-0.1586,-0.1587,-0.1609,-0.1611,-0.1602,-0.1641,-0.1646,-0.1658,-0.1626,-0.1699,-0.1702,-0.1703,-0.1734,-0.1739,-0.1743,0,0,0,0,0,-0.1446,-0.1471,-0.1477,-0.1485,-0.1525,-0.1549,-0.1556,-0.1575,-0.1588,-0.1604,-0.1624,-0.1611,-0.1656,-0.1645,-0.1649,-0.1662,-0.1698,-0.1701,-0.1703,-0.1732,-0.1738,-0.1743,0,0,0,0,0,0,-0.1453,-0.1476,-0.1482,-0.1515,-0.1533,-0.1552,-0.1581,-0.1593,-0.1624,-0.1637,-0.1634,-0.1637,-0.1662,-0.167,-0.1656,-0.1692,-0.1672,-0.1676,-0.1692,-0.1698,-0.1702,-0.1718,-0.1627,0,0,0,0,0,-0.1463,-0.1486,-0.1504,-0.1533,-0.1547,-0.157,-0.1591,-0.1603,-0.1627,-0.1641,-0.1658,-0.1674,-0.1674,-0.1694,-0.1694,-0.1735,-0.1722,-0.1744,-0.1749,-0.1752,-0.1769,-0.1763,-0.1768,-0.1712,-0.1712,-0.1712,0,0,-0.1477,-0.1492,-0.1508,-0.1536,-0.1559,-0.1586,-0.1582,-0.1622,-0.1649,-0.1641,-0.1696,-0.1687,-0.1685,-0.1709,-0.1723,-0.1723,-0.1758,-0.1755,-0.1759,-0.1773,-0.1766,-0.1771,-0.1776,-0.1714,-0.1714,-0.1714,0,0,-0.1504,-0.1529,-0.1553,-0.1573,-0.1607,-0.162,-0.1636,-0.167,-0.1692,-0.1736,-0.1722,-0.1738,-0.1764,-0.176,-0.1759,-0.18,-0.1769,-0.1793,-0.1847,-0.1841,-0.1845,-0.1849,-0.1821,-0.1822,-0.1812,-0.1812,-0.1812,0,-0.1524,-0.1545,-0.1565,-0.1591,-0.1613,-0.1638,-0.1666,-0.1696,-0.1739,-0.1756,-0.176,-0.1786,-0.1787,-0.1801,-0.1813,-0.181,-0.1793,-0.1823,-0.1846,-0.185,-0.1853,-0.1823,-0.1824,-0.1814,-0.1813,-0.1813,-0.1813,0,-0.155,-0.1582,-0.1603,-0.1639,-0.1667,-0.1698,-0.1732,-0.177,-0.18,-0.1817,-0.1846,-0.1851,-0.1864,-0.1862,-0.1855,-0.1875,-0.1848,-0.1836,-0.1829,-0.186,-0.1827,-0.1827,-0.1816,-0.1816,-0.1815,-0.1815,0,0,-0.1544,-0.1609,-0.1615,-0.1638,-0.1693,-0.1713,-0.1772,-0.1809,-0.184,-0.1883,-0.191,-0.1928,-0.1929,-0.193,-0.1917,-0.1931,-0.1932,-0.1907,-0.1905,-0.1873,-0.19,-0.1765,-0.1751,-0.192,-0.192,-0.1921,-0.186,0,-0.1554,-0.1602,-0.1635,-0.1688,-0.1713,-0.176,-0.1803,-0.1847,-0.1882,-0.1917,-0.1935,-0.1951,-0.1954,-0.1955,-0.1971,-0.1934,-0.1937,-0.1949,-0.188,-0.1878,-0.175,-0.1749,-0.1923,-0.186,-0.186,-0.186,-0.186,0,-0.1544,-0.1581,-0.1632,-0.1699,-0.1716,-0.1757,-0.1818,-0.1862,-0.1917,-0.1943,-0.1978,-0.1981,-0.2008,-0.2,-0.1987,-0.1991,-0.1958,-0.1935,-0.1932,-0.1799,-0.1743,-0.1828,-0.1859,-0.1859,-0.1859,-0.1859,-0.186,0,-0.149,-0.1568,-0.1607,-0.1632,-0.1718,-0.1755,-0.1803,-0.1867,-0.1901,-0.1959,-0.1977,-0.2007,-0.2014,-0.2001,-0.1966,-0.1976,-0.1929,-0.1928,-0.1775,-0.1765,-0.1892,-0.1889,-0.1917,-0.1917,-0.1917,-0.1917,-0.1918,0,-0.1455,-0.1489,-0.1591,-0.1611,-0.1661,-0.1732,-0.1784,-0.1838,-0.1902,-0.1922,-0.1985,-0.1982,-0.2017,-0.1992,-0.1964,-0.1855,-0.1923,-0.178,-0.1741,-0.1904,-0.1903,-0.189,-0.1888,-0.1915,-0.1916,-0.1916,-0.1917,0,-0.1375,-0.1445,-0.1497,-0.1601,-0.1636,-0.167,-0.1773,-0.18,-0.1877,-0.1903,-0.1921,-0.1966,-0.192,-0.192,-0.1879,-0.1825,-0.1752,-0.1696,-0.1854,-0.1826,-0.1595,-0.1595,-0.1523,-0.1517,-0.1513,-0.1509,-0.1506,0,-0.1334,-0.1355,-0.1472,-0.1504,-0.1555,-0.1625,-0.1665,-0.1771,-0.1795,-0.1863,-0.1853,-0.1849,-0.1854,-0.1677,-0.1705,-0.1622,-0.1607,-0.1572,-0.161,-0.1585,-0.1556,-0.1563,-0.1569,-0.1499,-0.1498,-0.1497,-0.1496,0,-0.1254,-0.1308,-0.1352,-0.1415,-0.1472,-0.1523,-0.159,-0.1592,-0.1689,-0.1786,-0.172,-0.1678,-0.1615,-0.1568,-0.1507,-0.146,-0.1602,-0.1526,-0.1536,-0.1571,-0.1555,-0.1532,-0.1544,-0.148,-0.1482,-0.1484,-0.1485,0,-0.1191,-0.1202,-0.1263,-0.13,-0.1368,-0.1375,-0.1436,-0.145,-0.1485,-0.1575,-0.1542,-0.1535,-0.1583,-0.1479,-0.1425,-0.1362,-0.1351,-0.133,-0.135,-0.1367,-0.1345,-0.1305,-0.1112,0,0,0,0,0,-0.1119,-0.1112,-0.1141,-0.1167,-0.1224,-0.1256,-0.1357,-0.1419,-0.1519,-0.143,-0.1482,-0.1411,-0.1326,-0.1329,-0.1226,-0.1352,-0.1357,-0.1231,-0.1345,-0.1394,-0.1412,-0.1402,0,0,0,0,0,0,-0.107,-0.1092,-0.1094,-0.1035,-0.1021,-0.1065,-0.112,-0.1198,-0.1162,-0.1269,-0.1219,-0.1317,-0.1243,-0.1331,-0.1183,-0.1187,-0.1231,-0.125,-0.1247,-0.1384,-0.1401,-0.1415,-0.141,0,0,0,0,0]},{"header":{"parameterUnit":"m.s-1","parameterCategory":2,"la1":30.2991,"la2":30.254,"lo1":-89.0895,"lo2":-89.0444,"dy":0.0017,"dx":0.0017,"nx":28,"ny":28,"refTime":"2024-08-26T21:00:00:Z","depth":"4","parameterNumber":3,"parameterNumberName":"V-component_of_CURRENTS"},"data":[0,0,0,0,0,0,0,0,0,0,0,0,0,0,0,0,0,0,0,0,0,0,0,0,0,0,0,0,0,0,0,0,0,0,0,0,0,0,0,0,0,0,0,0,0,0,0,0,0,0,0,0,0,0,0,0,0,0,-0.0323,-0.0323,0,-0.0284,-0.0283,-0.0283,-0.028,-0.028,-0.028,-0.0281,-0.0239,-0.0238,-0.0237,0,0,0,0,0,0,0,0,0,0,0,0,0,-0.0345,-0.0345,-0.0323,-0.0323,-0.0322,-0.0284,-0.0283,-0.0283,-0.028,-0.028,-0.028,-0.0281,-0.024,-0.0238,-0.0237,0,0,0,0,0,0,0,0,0,0,0,0,0,-0.0325,-0.0345,-0.0323,-0.0315,-0.0314,-0.0284,-0.0283,-0.0283,-0.028,-0.028,-0.028,-0.0281,-0.024,-0.0238,-0.0236,-0.0214,0,0,-0.023,-0.0229,0,0,0,0,0,0,0,0,-0.0326,-0.0324,-0.0317,-0.0315,-0.0314,-0.0286,-0.0276,-0.0259,-0.0279,-0.0294,-0.0281,-0.0281,-0.0254,-0.0251,-0.0244,-0.0212,-0.021,-0.023,-0.0229,-0.0228,-0.0227,0,0,0,0,0,0,0,-0.0328,-0.0326,-0.0309,-0.0316,-0.0314,-0.0296,-0.0294,-0.0273,-0.0272,-0.0292,-0.0292,-0.0286,-0.0253,-0.0246,-0.0243,-0.0209,-0.023,-0.0228,-0.0227,-0.0226,-0.017,-0.017,0,0,0,0,0,0,-0.0333,-0.0327,-0.031,-0.0307,-0.032,-0.0295,-0.0293,-0.0296,-0.0272,-0.0269,-0.0285,-0.0286,-0.0249,-0.0245,-0.0241,-0.0216,-0.0228,-0.0226,-0.0224,-0.017,-0.017,-0.017,0,0,0,0,0,0,-0.0333,-0.0332,-0.0311,-0.0315,-0.0311,-0.0295,-0.0297,-0.0294,-0.0291,-0.0267,-0.0264,-0.0285,-0.0249,-0.0244,-0.0226,-0.0214,-0.0225,-0.0223,-0.0171,-0.017,-0.017,-0.0164,0,0,0,0,0,0,-0.0334,-0.0332,-0.0338,-0.0316,-0.0311,-0.03,-0.0296,-0.0293,-0.0286,-0.0286,-0.0265,-0.0262,-0.0249,-0.0229,-0.0224,-0.0212,-0.0221,-0.0171,-0.017,-0.017,-0.0164,-0.0163,-0.0162,0,0,0,0,0,-0.0335,-0.034,-0.0339,-0.0337,-0.0319,-0.03,-0.0296,-0.0286,-0.0285,-0.0285,-0.027,-0.0263,-0.0223,-0.0227,-0.0221,-0.0208,-0.0171,-0.0171,-0.017,-0.0164,-0.0163,-0.0162,0,0,0,0,0,0,-0.0351,-0.0339,-0.0338,-0.0339,-0.0323,-0.0299,-0.0297,-0.0287,-0.0274,-0.0277,-0.0256,-0.0251,-0.0235,-0.0222,-0.0227,-0.0192,-0.0197,-0.0195,-0.0195,-0.0193,-0.0192,-0.0179,-0.0219,0,0,0,0,0,-0.0357,-0.0361,-0.0342,-0.0343,-0.0337,-0.0317,-0.0309,-0.0301,-0.0284,-0.028,-0.0261,-0.0244,-0.0227,-0.0212,-0.02,-0.0172,-0.0143,-0.0162,-0.0161,-0.016,-0.0146,-0.0087,-0.0079,-0.0168,-0.0168,-0.0168,0,0,-0.0364,-0.0357,-0.0359,-0.0346,-0.0335,-0.0325,-0.0314,-0.0304,-0.0292,-0.0276,-0.0256,-0.0244,-0.0222,-0.0199,-0.0189,-0.0185,-0.0123,-0.016,-0.0159,-0.0144,-0.0085,-0.0076,-0.0068,-0.0168,-0.0168,-0.0168,0,0,-0.0373,-0.0372,-0.0377,-0.0365,-0.0349,-0.0334,-0.0333,-0.0309,-0.0297,-0.0278,-0.0263,-0.0231,-0.0217,-0.0179,-0.0163,-0.0145,-0.0128,-0.0159,-0.0129,-0.0073,-0.0065,-0.0057,-0.0021,-0.001,-0.0148,-0.0148,-0.0148,0,-0.0382,-0.0385,-0.0373,-0.0369,-0.0362,-0.034,-0.0337,-0.0316,-0.0287,-0.0271,-0.0278,-0.0222,-0.0198,-0.0146,-0.014,-0.0138,-0.012,-0.0136,-0.007,-0.0062,-0.0054,-0.0018,-0.0006,-0.0148,-0.0148,-0.0148,-0.0148,0,-0.0389,-0.0393,-0.0392,-0.0384,-0.0372,-0.0367,-0.0337,-0.0321,-0.0307,-0.028,-0.024,-0.0199,-0.0163,-0.0149,-0.0137,-0.007,-0.0082,-0.0083,-0.007,-0.0044,-0.0009,0.0004,-0.0147,-0.0147,-0.0147,-0.0148,0,0,-0.041,-0.0402,-0.0404,-0.0407,-0.0382,-0.0376,-0.0349,-0.0317,-0.03,-0.0259,-0.0226,-0.0166,-0.0142,-0.0121,-0.0092,-0.0027,0.0048,-0.0032,-0.0029,0.0009,0.0153,0.0119,0.0129,0.005,0.0052,0.0054,0.0151,0,-0.0422,-0.0431,-0.0416,-0.0419,-0.0421,-0.0391,-0.037,-0.0335,-0.0304,-0.0266,-0.0195,-0.0163,-0.0133,-0.0119,-0.0045,0.0013,0.0083,0.0022,0.0118,0.0121,0.0093,0.0144,0.0062,0.016,0.0163,0.0165,0.0167,0,-0.0435,-0.0441,-0.0455,-0.0446,-0.0444,-0.044,-0.041,-0.0386,-0.0316,-0.0291,-0.0228,-0.0186,-0.0084,-0.0072,0.0079,0.0028,0.0098,0.0155,0.0159,0.0139,0.0112,0.0132,0.019,0.0188,0.0186,0.0185,0.0183,0,-0.0466,-0.0466,-0.0484,-0.0482,-0.0465,-0.0465,-0.0452,-0.0399,-0.0378,-0.0307,-0.0287,-0.0175,-0.0124,-0.0014,0.0103,0.0087,0.0261,0.0251,0.0295,0.0292,0.029,0.0281,0.0377,0.0377,0.0377,0.0376,0.0376,0,-0.0483,-0.0498,-0.0507,-0.0517,-0.0536,-0.0507,-0.0509,-0.0476,-0.0423,-0.0391,-0.0307,-0.0251,-0.0107,0.0003,0.0107,0.0237,0.0267,0.0319,0.0327,0.0286,0.0276,0.0298,0.0288,0.038,0.0379,0.0378,0.0378,0,-0.0511,-0.0516,-0.0542,-0.0549,-0.0555,-0.0572,-0.0563,-0.0553,-0.0501,-0.0456,-0.0434,-0.03,-0.0158,-0.0017,0.0169,0.0232,0.0363,0.0404,0.0347,0.0346,0.0354,0.0342,0.0461,0.0461,0.0461,0.0461,0.0461,0,-0.0523,-0.0542,-0.0581,-0.061,-0.062,-0.064,-0.0647,-0.0603,-0.0582,-0.0476,-0.0448,-0.0307,-0.0209,0.0029,0.0173,0.0363,0.0388,0.0439,0.0415,0.0373,0.0369,0.0357,0.0346,0.0461,0.0461,0.0461,0.0461,0,-0.0548,-0.0572,-0.0598,-0.0661,-0.0692,-0.0714,-0.0715,-0.0702,-0.063,-0.0584,-0.0447,-0.0312,-0.0151,0.0031,0.0173,0.0313,0.0393,0.0438,0.0439,0.0418,0.0374,0.0367,0.0356,0.046,0.046,0.046,0.046,0,-0.0572,-0.0605,-0.0651,-0.07,-0.0748,-0.0769,-0.0765,-0.0715,-0.0677,-0.0547,-0.0496,-0.0311,-0.0189,0.0007,0.0148,0.0267,0.0294,0.0316,0.0324,0.0326,0.025,0.0172,0.0224,0,0,0,0,0,-0.0587,-0.0627,-0.0682,-0.0738,-0.0786,-0.0807,-0.0796,-0.0773,-0.07,-0.0611,-0.055,-0.0392,-0.0164,-0.0047,0.0068,0.0125,0.0294,0.0259,0.0317,0.0458,0.0459,0.0389,0,0,0,0,0,0,-0.0602,-0.0658,-0.0685,-0.0755,-0.0798,-0.0839,-0.0833,-0.0785,-0.0717,-0.0625,-0.0495,-0.0394,-0.0167,-0.0237,0.006,0.0101,0.0145,0.0381,0.0383,0.0458,0.0458,0.0459,0.0388,0,0,0,0,0]}]]